Tracking 31027 objects as of 18-Jul-2025
HD Live streaming from Space Station
objects crossing your sky now

H-2A R/B

Track H-2A R/B now!


NORAD ID: 42966
Int'l Code: 2017-062B
Perigee: 285.6 km
Apogee: 33,762.1 km
Inclination: 31.6 °
Period: 593.5 minutes
Semi major axis: 23394 km
RCS: Unknown
Launch date: October 9, 2017
Source: Japan (JPN)
Launch site: TANEGASHIMA SPACE CENTER (TNSTA)

Note: This is a ROCKET BODY
Your satellite tracking list
Your tracking list is empty




NASA's NSSDC Master Catalog

Two Line Element Set (TLE):
1 42966U 17062B   25199.26868023  .00001085  00000-0  46937-3 0  9990
2 42966  31.5666  68.9053 7154675 332.7040   3.3427  2.42617418 66704
Source of the keplerian elements: AFSPC